[[{"header":{"parameterUnit":"m.s-1","parameterCategory":1,"la1":30.2991,"la2":30.254,"lo1":-89.0895,"lo2":-89.0444,"dy":0.0017,"dx":0.0017,"nx":28,"ny":28,"refTime":"2023-09-18T21:00:00:Z","depth":0,"parameterNumber":2,"parameterNumberName":"U-component_of_WINDS"},"data":[0,0,0,0,0,0,0,0,0,0,0,0,0,0,0,0,0,0,0,0,0,0,0,0,0,0,0,0,0,0,0,0,0,0,0,0,0,0,0,0,0,0,0,0,0,0,0,0,0,0,0,0,0,0,0,0,0,0,-2.3087,-2.3087,0,-2.3132,-2.3132,-2.3133,-2.308,-2.3077,-2.3075,-2.3074,-2.3129,-2.3132,-2.3136,0,0,0,0,0,0,0,0,0,0,0,0,0,-2.2963,-2.2965,-2.3086,-2.3087,-2.3088,-2.3132,-2.3132,-2.3133,-2.308,-2.3077,-2.3075,-2.3073,-2.3128,-2.3132,-2.3136,0,0,0,0,0,0,0,0,0,0,0,0,0,-2.3013,-2.2966,-2.3086,-2.3066,-2.3065,-2.3132,-2.3132,-2.3133,-2.308,-2.3077,-2.3074,-2.3071,-2.3127,-2.3132,-2.3137,-2.3228,0,0,-2.3152,-2.3154,0,0,0,0,0,0,0,0,-2.3011,-2.3018,-2.3069,-2.3068,-2.3066,-2.3097,-2.3109,-2.3166,-2.3081,-2.3075,-2.3074,-2.307,-2.3121,-2.3127,-2.3142,-2.3231,-2.3233,-2.3153,-2.3156,-2.3158,-2.3159,0,0,0,0,0,0,0,-2.3007,-2.3016,-2.3105,-2.3069,-2.3068,-2.3058,-2.3062,-2.312,-2.3115,-2.3075,-2.3071,-2.3077,-2.312,-2.3137,-2.3143,-2.3234,-2.3152,-2.3157,-2.316,-2.3162,-2.3402,-2.3405,0,0,0,0,0,0,-2.3005,-2.3013,-2.3103,-2.3106,-2.303,-2.3062,-2.3067,-2.309,-2.3114,-2.3115,-2.3079,-2.3074,-2.313,-2.3137,-2.3145,-2.3254,-2.3158,-2.3162,-2.3165,-2.3398,-2.3402,-2.3406,0,0,0,0,0,0,-2.3002,-2.3013,-2.3101,-2.3059,-2.3069,-2.3068,-2.3095,-2.3093,-2.311,-2.3117,-2.3117,-2.3097,-2.3128,-2.3138,-2.3208,-2.3255,-2.3165,-2.3169,-2.3394,-2.34,-2.3404,-2.3472,0,0,0,0,0,0,-2.2999,-2.3013,-2.3045,-2.306,-2.3071,-2.3161,-2.3097,-2.3096,-2.3117,-2.3111,-2.3134,-2.3135,-2.3127,-2.32,-2.3213,-2.326,-2.3173,-2.339,-2.3397,-2.3403,-2.3466,-2.3479,-2.349,0,0,0,0,0,-2.2995,-2.3065,-2.3047,-2.3058,-2.3112,-2.3164,-2.3171,-2.3157,-2.3121,-2.3156,-2.3161,-2.3134,-2.3248,-2.3208,-2.3221,-2.3271,-2.3387,-2.3395,-2.3402,-2.346,-2.3476,-2.349,0,0,0,0,0,0,-2.3059,-2.3066,-2.3047,-2.3123,-2.3143,-2.3154,-2.3197,-2.3175,-2.3207,-2.32,-2.3185,-2.3191,-2.3265,-2.3275,-2.3231,-2.3362,-2.3312,-2.3323,-2.3352,-2.3367,-2.3379,-2.3375,-2.3177,0,0,0,0,0,-2.3082,-2.312,-2.3125,-2.3192,-2.3203,-2.3198,-2.3221,-2.3208,-2.3229,-2.3238,-2.3248,-2.3272,-2.3313,-2.3341,-2.3379,-2.3467,-2.3472,-2.3509,-2.3521,-2.3531,-2.354,-2.3588,-2.3604,-2.3431,-2.3431,-2.343,0,0,-2.313,-2.3138,-2.3164,-2.3206,-2.3219,-2.3262,-2.3206,-2.3254,-2.3286,-2.3247,-2.3312,-2.3321,-2.3347,-2.3426,-2.3461,-2.3437,-2.3589,-2.354,-2.3548,-2.3552,-2.3597,-2.3614,-2.3628,-2.3436,-2.3435,-2.3434,0,0,-2.3239,-2.3249,-2.3305,-2.3319,-2.334,-2.3336,-2.335,-2.3365,-2.3368,-2.3433,-2.3404,-2.3445,-2.3516,-2.3535,-2.3554,-2.3671,-2.3649,-2.3685,-2.3749,-2.3795,-2.3809,-2.3821,-2.3863,-2.3878,-2.3694,-2.3694,-2.3694,0,-2.3297,-2.3356,-2.3338,-2.3387,-2.3407,-2.337,-2.3428,-2.3445,-2.3478,-2.3494,-2.3466,-2.3553,-2.3569,-2.3652,-2.368,-2.3697,-2.3714,-2.3682,-2.3808,-2.382,-2.3831,-2.3871,-2.3887,-2.3698,-2.3698,-2.3698,-2.3697,0,-2.3427,-2.3469,-2.3513,-2.3542,-2.3567,-2.3621,-2.3613,-2.3642,-2.3628,-2.3628,-2.3696,-2.3712,-2.3753,-2.3772,-2.3761,-2.3855,-2.3839,-2.381,-2.3759,-2.3852,-2.3889,-2.3904,-2.3704,-2.3703,-2.3702,-2.3701,0,0,-2.3577,-2.3595,-2.3611,-2.3624,-2.3644,-2.3678,-2.3732,-2.3768,-2.3793,-2.3818,-2.3864,-2.3925,-2.3897,-2.392,-2.391,-2.3951,-2.4043,-2.3917,-2.3917,-2.394,-2.4148,-2.4169,-2.4187,-2.4028,-2.4031,-2.4033,-2.4146,0,-2.3686,-2.3774,-2.3759,-2.3846,-2.3885,-2.3852,-2.3898,-2.3917,-2.392,-2.3956,-2.396,-2.4003,-2.3964,-2.3977,-2.4017,-2.4023,-2.4084,-2.4015,-2.4072,-2.4074,-2.4065,-2.4206,-2.4229,-2.4334,-2.416,-2.4163,-2.4164,0,-2.3824,-2.385,-2.394,-2.3953,-2.3969,-2.4011,-2.4044,-2.4079,-2.4101,-2.41,-2.4124,-2.4107,-2.4163,-2.4112,-2.419,-2.4143,-2.4166,-2.4173,-2.4177,-2.4182,-2.4124,-2.4215,-2.4368,-2.4383,-2.4187,-2.4185,-2.4184,0,-2.3924,-2.3983,-2.4043,-2.4056,-2.4073,-2.4103,-2.4113,-2.4131,-2.4155,-2.4185,-2.42,-2.4238,-2.4259,-2.429,-2.4284,-2.4247,-2.4364,-2.4313,-2.4367,-2.4367,-2.4392,-2.4391,-2.4551,-2.4408,-2.4408,-2.4408,-2.4407,0,-2.4046,-2.4103,-2.4088,-2.4126,-2.4189,-2.4173,-2.4236,-2.4242,-2.4259,-2.4299,-2.4274,-2.4314,-2.4304,-2.4344,-2.4341,-2.4406,-2.4416,-2.4418,-2.4417,-2.442,-2.442,-2.4435,-2.4427,-2.4412,-2.4411,-2.441,-2.4409,0,-2.4169,-2.4161,-2.4225,-2.4236,-2.424,-2.4286,-2.4296,-2.4333,-2.4333,-2.4385,-2.4396,-2.4398,-2.4443,-2.4441,-2.4493,-2.4491,-2.4572,-2.4562,-2.4563,-2.4561,-2.4615,-2.461,-2.479,-2.4813,-2.4655,-2.4657,-2.4658,0,-2.4247,-2.4289,-2.4303,-2.4326,-2.4337,-2.4375,-2.4398,-2.4385,-2.441,-2.4438,-2.4473,-2.4515,-2.4548,-2.4623,-2.463,-2.4671,-2.4662,-2.4722,-2.4668,-2.467,-2.4662,-2.466,-2.4664,-2.4733,-2.4734,-2.4736,-2.4737,0,-2.4386,-2.438,-2.4412,-2.4443,-2.447,-2.4495,-2.4518,-2.4539,-2.4529,-2.4559,-2.4603,-2.4629,-2.4681,-2.4724,-2.4762,-2.4775,-2.4756,-2.4754,-2.4769,-2.4772,-2.4771,-2.4772,-2.4592,-2.475,-2.4749,-2.4748,-2.4747,-2.4747,-2.4489,-2.4524,-2.4539,-2.4576,-2.4591,-2.4613,-2.4647,-2.4651,-2.4686,-2.4725,-2.4716,-2.4767,-2.4789,-2.4838,-2.4855,-2.4896,-2.4875,-2.4896,-2.4901,-2.4907,-2.4912,-2.4765,-2.4903,-2.4903,-2.4902,-2.4902,-2.4902,0,-2.4627,-2.4634,-2.4668,-2.4699,-2.4728,-2.4704,-2.4728,-2.4755,-2.4798,-2.4819,-2.4851,-2.4903,-2.4945,-2.4956,-2.4996,-2.5027,-2.5019,-2.5039,-2.5036,-2.504,-2.4929,-2.4912,-2.5044,-2.5044,-2.5044,-2.5044,-2.5044,-2.5044,-2.4702,-2.476,-2.4756,-2.4823,-2.4832,-2.4878,-2.4893,-2.4914,-2.493,-2.4988,-2.5021,-2.5027,-2.5045,-2.5086,-2.5125,-2.5127,-2.5143,-2.5166,-2.5165,-2.5062,-2.5047,-2.5034,-2.5018,-2.517,-2.517,-2.5272,-2.5273,-2.5274]},{"header":{"parameterUnit":"m.s-1","parameterCategory":1,"la1":30.2991,"la2":30.254,"lo1":-89.0895,"lo2":-89.0444,"dy":0.0017,"dx":0.0017,"nx":28,"ny":28,"refTime":"2023-09-18T21:00:00:Z","depth":0,"parameterNumber":3,"parameterNumberName":"V-component_of_WINDS"},"data":[0,0,0,0,0,0,0,0,0,0,0,0,0,0,0,0,0,0,0,0,0,0,0,0,0,0,0,0,0,0,0,0,0,0,0,0,0,0,0,0,0,0,0,0,0,0,0,0,0,0,0,0,0,0,0,0,0,0,2.0093,2.0094,0,2.0157,2.0157,2.0158,2.0239,2.0241,2.0242,2.0243,2.0303,2.0303,2.0303,0,0,0,0,0,0,0,0,0,0,0,0,0,2.0038,2.0038,2.0093,2.0094,2.0095,2.0157,2.0158,2.0158,2.0239,2.0241,2.0242,2.0244,2.0303,2.0303,2.0303,0,0,0,0,0,0,0,0,0,0,0,0,0,2.0077,2.0039,2.0093,2.0143,2.0148,2.0156,2.0158,2.0159,2.0239,2.0241,2.0243,2.0245,2.0302,2.0303,2.0304,2.0267,0,0,2.0305,2.0305,0,0,0,0,0,0,0,0,2.0075,2.0079,2.0135,2.0139,2.0145,2.0192,2.016,2.0195,2.0238,2.0204,2.0243,2.0246,2.0264,2.0268,2.0275,2.027,2.0272,2.0305,2.0306,2.0306,2.0306,0,0,0,0,0,0,0,2.0072,2.0077,2.0118,2.0135,2.0142,2.016,2.0168,2.0167,2.0222,2.0207,2.0213,2.022,2.0267,2.0274,2.0277,2.0273,2.0305,2.0306,2.0306,2.0306,2.0241,2.0239,0,0,0,0,0,0,2.0063,2.0074,2.0116,2.012,2.0114,2.016,2.0169,2.0175,2.0222,2.0231,2.0218,2.0223,2.0273,2.0276,2.028,2.0239,2.0306,2.0306,2.0307,2.0243,2.024,2.0238,0,0,0,0,0,0,2.0061,2.0066,2.0114,2.0099,2.0107,2.0159,2.0165,2.0175,2.0183,2.0231,2.024,2.0216,2.0274,2.0279,2.027,2.0243,2.0306,2.0307,2.0245,2.0242,2.0239,2.0158,0,0,0,0,0,0,2.0059,2.0065,2.0052,2.0098,2.0107,2.0104,2.0164,2.0175,2.0184,2.0191,2.0231,2.0239,2.0276,2.0269,2.027,2.0244,2.0307,2.0248,2.0244,2.024,2.0164,2.0153,2.0144,0,0,0,0,0,2.0057,2.0026,2.0051,2.0056,2.0093,2.0102,2.0107,2.0152,2.0181,2.0169,2.02,2.0238,2.0246,2.0267,2.027,2.0243,2.025,2.0245,2.024,2.0168,2.0155,2.0144,0,0,0,0,0,0,1.9973,2.0033,2.0061,2.0045,2.0068,2.0116,2.0101,2.0137,2.015,2.0157,2.021,2.0218,2.0202,2.0223,2.0245,2.021,2.0253,2.0249,2.0198,2.0186,2.0176,2.017,2.0308,0,0,0,0,0,1.9953,1.9957,2.0009,1.9989,1.9999,2.0048,2.0054,2.0086,2.0112,2.0122,2.0152,2.0174,2.0182,2.0185,2.0195,2.0168,2.0177,2.0151,2.0141,2.0133,2.0128,2.0114,2.0103,2.0223,2.0223,2.0223,0,0,1.9911,1.9944,1.9943,1.9973,1.9995,1.9996,2.0055,2.0055,2.0056,2.0121,2.0115,2.0138,2.0166,2.0147,2.0141,2.0164,2.0097,2.0127,2.012,2.0119,2.0108,2.0097,2.0087,2.022,2.022,2.0221,0,0,1.9834,1.986,1.9846,1.9868,1.9901,1.9934,1.9931,1.9974,1.9992,1.9987,2.0036,2.0038,2.005,2.0068,2.0078,2.001,2.0045,2.0012,1.9959,1.9945,1.9935,1.9927,1.9901,1.9892,2.0007,2.0007,2.0007,0,1.9776,1.9783,1.9834,1.9831,1.9842,1.9904,1.9889,1.9907,1.994,1.9946,1.9972,1.9988,2.0012,1.9998,1.9982,1.9989,1.9985,2.0006,1.9933,1.9925,1.9918,1.9894,1.9885,2.0002,2.0003,2.0003,2.0004,0,1.971,1.9713,1.9698,1.9731,1.9741,1.9731,1.978,1.9784,1.9816,1.9846,1.9839,1.987,1.9887,1.9886,1.9917,1.9877,1.989,1.9924,1.9967,1.9902,1.988,1.9871,1.9996,1.9998,1.9999,2.0,0,0,1.9579,1.9643,1.9636,1.9652,1.9694,1.9697,1.9691,1.9709,1.971,1.9732,1.9726,1.9736,1.9768,1.978,1.9813,1.9802,1.9744,1.9837,1.9838,1.9817,1.97,1.9673,1.9662,1.9769,1.9767,1.9766,1.9697,0,1.9509,1.9503,1.955,1.9531,1.9534,1.9593,1.9587,1.9612,1.964,1.9645,1.9676,1.9681,1.9723,1.9731,1.9722,1.9753,1.9721,1.9759,1.9762,1.9762,1.9751,1.9651,1.9622,1.9556,1.9689,1.9688,1.9687,0,1.9426,1.9445,1.9426,1.947,1.9473,1.9467,1.9488,1.9493,1.9522,1.9543,1.9557,1.9597,1.9592,1.9635,1.9629,1.9653,1.9658,1.9673,1.9672,1.9672,1.9719,1.9646,1.9536,1.9525,1.9674,1.9675,1.9676,0,1.9331,1.9352,1.9344,1.9356,1.9407,1.9401,1.9422,1.9453,1.9461,1.9479,1.9484,1.95,1.9508,1.9519,1.9562,1.959,1.9549,1.9597,1.9565,1.9564,1.9552,1.9551,1.9438,1.9558,1.9558,1.9558,1.9558,0,1.9247,1.9232,1.9302,1.9296,1.9282,1.9336,1.932,1.9346,1.9373,1.9373,1.9425,1.9423,1.948,1.9484,1.9517,1.9506,1.9509,1.9525,1.9533,1.9519,1.9517,1.9521,1.9526,1.9555,1.9556,1.9556,1.9557,0,1.9137,1.9184,1.9178,1.9228,1.924,1.9227,1.9269,1.9265,1.9297,1.9296,1.9298,1.9348,1.9356,1.94,1.9417,1.9439,1.9415,1.9433,1.9405,1.9411,1.9376,1.9378,1.926,1.9246,1.9376,1.9374,1.9373,0,1.9079,1.907,1.9119,1.9124,1.9143,1.9149,1.9158,1.9211,1.9218,1.9251,1.9242,1.9255,1.9267,1.9276,1.9312,1.9326,1.9344,1.9302,1.9346,1.9332,1.9341,1.934,1.9339,1.9291,1.929,1.9288,1.9287,0,1.8971,1.8995,1.9007,1.9027,1.9037,1.9055,1.9076,1.9076,1.9135,1.914,1.9149,1.9159,1.9178,1.9188,1.9208,1.9228,1.9266,1.9274,1.9267,1.9251,1.9234,1.9241,1.9377,1.9275,1.9276,1.9277,1.9278,1.9278,1.8885,1.8879,1.8913,1.8925,1.8947,1.8966,1.8965,1.8998,1.9007,1.9028,1.9058,1.9063,1.9092,1.9123,1.9139,1.9143,1.9165,1.9155,1.9153,1.9149,1.9141,1.9236,1.9147,1.9147,1.9148,1.9148,1.9148,0,1.8778,1.8804,1.8814,1.8843,1.8852,1.889,1.8916,1.892,1.8924,1.8949,1.8961,1.8971,1.8982,1.902,1.9035,1.903,1.9048,1.9032,1.9032,1.9036,1.9121,1.9125,1.9017,1.9017,1.9017,1.9017,1.9017,1.9017,1.8723,1.8716,1.8744,1.8748,1.8773,1.878,1.8791,1.8808,1.8828,1.8838,1.8848,1.8874,1.8903,1.8921,1.8932,1.8943,1.8945,1.8923,1.8939,1.9017,1.903,1.9041,1.9045,1.8923,1.8923,1.8853,1.8853,1.8852]}]]